Location: Unspecified
(50.0830°N, 0.0000°E)
Time: 23:37:40
(UTC+00:00)

Envisat - Pass Details

Date: 28 November 2019
Orbit: 764 x 766 km, 98.1° (Epoch: 14 December)

Event Time Altitude Azimuth Distance (km) Brightness Sun altitude
Rises 05:24:26 0° 29° (NNE) 3,243 6.5 -19.8°
Reaches altitude 10° 05:27:58 10° 55° (NE) 2,310 6.1 -19.2°
Maximum altitude 05:30:33 14° 86° (E) 2,044 6.2 -18.8°
Drops below altitude 10° 05:33:08 10° 117° (ESE) 2,301 6.6 -18.4°
Sets 05:36:38 0° 142° (SE) 3,220 7.0 -17.9°
